DW7680 Weather Reports


Display with metric or nautical units.
time (UTC)temp
F
wind
direction
speed
MPH
gust
MPH
rain 1hr
in
rain 24hr
in
rain mn
in
humidity
%
barometer
mb
20260506061503 53 234 10.0 18.0 0.00 0.00 0.00 36 1007.7
20260506044503 54 215 4.0 14.0 0.00 0.00 0.00 42 1007.5
20260506043003 54 245 4.0 14.0 0.00 0.00 0.00 43 1007.3
20260506041503 54 255 6.0 15.0 0.00 0.00 0.00 44 1007.1
20260506040004 54 255 5.0 10.0 0.00 0.00 0.00 46 1007.0
20260506034504 54 234 5.0 12.0 0.00 0.00 0.00 45 1006.8
20260506033006 54 243 7.0 14.0 0.00 0.00 0.00 45 1006.6
20260506031504 55 236 8.0 20.0 0.00 0.00 0.00 44 1006.3
20260506030004 55 259 9.0 22.0 0.00 0.00 0.00 44 1006.1
20260506024503 55 246 9.0 21.0 0.00 0.00 0.00 43 1006.1
20260506023003 55 237 7.0 17.0 0.00 0.00 0.00 44 1005.9
20260506021502 55 223 9.0 21.0 0.00 0.00 0.00 44 1005.6
20260506020005 55 305 9.0 23.0 0.00 0.00 0.00 45 1005.5
20260506014504 55 264 12.0 19.0 0.00 0.00 0.00 45 1005.4
20260506013004 55 246 10.0 28.0 0.00 0.00 0.00 45 1005.2
20260506011507 55 254 11.0 24.0 0.00 0.00 0.00 46 1005.1
20260506010005 55 227 14.0 23.0 0.00 0.00 0.00 46 1005.1
20260506004503 55 217 10.0 24.0 0.00 0.00 0.00 48 1004.9
20260506003003 55 256 13.0 24.0 0.00 0.00 0.00 50 1005.0
20260506001503 56 234 13.0 24.0 0.00 0.00 0.00 50 1004.8
20260506000005 56 216 12.0 24.0 0.00 0.00 0.00 49 1004.6
20260505234503 56 240 13.0 28.0 0.00 0.00 0.00 51 1004.7
20260505233003 56 260 11.0 29.0 0.00 0.00 0.00 51 1004.6
20260505231503 56 246 15.0 32.0 0.00 0.00 0.00 50 1004.4
20260505230010 56 224 17.0 38.0 0.00 0.00 0.00 50 1004.4
20260505224502 56 259 16.0 31.0 0.00 0.00 0.00 52 1004.4
20260505223003 56 240 18.0 32.0 0.00 0.00 0.00 52 1004.3
20260505221503 56 231 19.0 38.0 0.00 0.00 0.00 52 1004.5
20260505220004 56 286 12.0 29.0 0.00 0.00 0.00 50 1004.6
20260505214502 56 260 18.0 30.0 0.00 0.00 0.00 51 1004.6
20260505213007 56 244 13.0 33.0 0.00 0.00 0.00 52 1004.8
20260505211508 55 243 18.0 37.0 0.00 0.00 0.00 55 1005.2
20260505210004 55 240 13.0 30.0 0.00 0.00 0.00 56 1005.2
20260505204503 54 276 16.0 32.0 0.00 0.00 0.00 60 1005.2
20260505203002 53 253 18.0 33.0 0.00 0.00 0.00 63 1005.4
20260505201502 54 277 11.0 21.0 0.00 0.00 0.00 60 1005.2
20260505200007 51 277 12.0 25.0 0.00 0.00 0.00 66 1005.4
20260505194502 52 235 16.0 33.0 0.00 0.00 0.00 68 1005.7
20260505193003 53 240 16.0 30.0 0.00 0.00 0.00 65 1005.5
20260505191509 54 269 11.0 25.0 0.00 0.00 0.00 58 1005.4
20260505190010 54 286 17.0 30.0 0.00 0.00 0.00 55 1005.4
20260505184507 58 255 15.0 30.0 0.00 0.00 0.00 46 1005.0
20260505183011 59 253 17.0 33.0 0.00 0.00 0.00 45 1004.6
20260505181503 57 254 21.0 41.0 0.00 0.00 0.00 45 1005.0
20260505180003 59 267 14.0 35.0 0.00 0.00 0.00 44 1004.7
20260505174506 57 250 20.0 39.0 0.00 0.00 0.00 44 1005.0
20260505173002 58 213 13.0 30.0 0.00 0.00 0.00 42 1005.1
20260505171506 58 263 13.0 32.0 0.00 0.00 0.00 38 1005.2
20260505170004 58 248 10.0 27.0 0.00 0.00 0.00 39 1005.4
20260505164503 57 257 16.0 32.0 0.00 0.00 0.00 39 1005.1
20260505163002 57 287 11.0 22.0 0.00 0.00 0.00 37 1005.3
20260505161502 57 285 7.0 18.0 0.00 0.00 0.00 38 1005.3
20260505153003 57 270 11.0 30.0 0.00 0.00 0.00 36 1004.6
20260505151503 56 240 11.0 21.0 0.00 0.00 0.00 38 1004.5
20260505124502 53 230 12.0 23.0 0.00 0.00 0.00 44 1003.2
20260505123003 53 250 13.0 29.0 0.00 0.00 0.00 45 1002.9
20260505121507 54 259 13.0 28.0 0.00 0.00 0.00 44 1003.0
20260505120005 53 313 13.0 26.0 0.00 0.00 0.00 44 1002.6
20260505114504 54 265 12.0 28.0 0.00 0.00 0.00 44 1002.6
20260505113010 54 229 13.0 33.0 0.00 0.00 0.00 43 1002.6
20260505111503 54 240 14.0 25.0 0.00 0.00 0.00 43 1002.6
20260505101501 56 239 11.0 26.0 0.00 0.00 0.00 41 1002.5
20260505100004 56 258 12.0 25.0 0.00 0.00 0.00 40 1002.9
20260505094503 56 264 11.0 24.0 0.00 0.00 0.00 39 1003.3
20260505093003 57 275 14.0 33.0 0.00 0.00 0.00 38 1003.3
20260505091502 57 241 13.0 29.0 0.00 0.00 0.00 37 1003.3
20260505090002 57 261 13.0 28.0 0.00 0.00 0.00 36 1003.5
20260505084500 57 262 14.0 25.0 0.00 0.00 0.00 36 1003.8
20260505083002 57 248 14.0 25.0 0.00 0.00 0.00 36 1004.3
20260505081501 57 254 10.0 23.0 0.00 0.00 0.00 35 1004.4
20260505080003 57 258 9.0 24.0 0.00 0.00 0.00 35 1004.4
20260505074502 57 268 9.0 16.0 0.00 0.00 0.00 35 1004.5
20260505073004 57 262 10.0 20.0 0.00 0.00 0.00 35 1004.7
20260505071503 57 266 9.0 17.0 0.00 0.00 0.00 35 1004.7
20260505070006 57 267 9.0 19.0 0.00 0.00 0.00 36 1004.5